星链-4315 (STARLINK-4315 )

导读

STARLINK-4315是美国SpaceX公司星链星座的成员,作为低轨互联网通信卫星,于2022年7月11日由猎鹰9号火箭发射升空。该卫星质量约297千克,运行在约548公里轨道高度,归属星链Group 4-16批次,属于第一代V1.5型号,它搭载激光星间链路,可提供高速低延迟宽带服务,是星链全球覆盖网络的重要组成部分。

基本信息
目录编号:
53077
目录名称:
STARLINK-4315
国际标识:
2022-077AL
轨道中心:
EARTH
卫星名称:
星链-4315
卫星全名:
星链-4315 (STARLINK-4315 )
卫星状态:
已陨落 最后检测时间 2026-02-14
发射日期:
2022-07-11 UTC
国别 :
美国 (US)
星等 :
--
轨道信息
数据来源 国际轨道数据
星历时间: 2026-02-14T16:27:06+0800
轨道信息已过期123天
半长轴: 6553.838km
偏心率: 0.00091
轨道倾角: 97.595°
近地点辐角 258.476°
升交点赤经 245.457°
平近点角 101.552°
近地点: 169.737km
远地点: 181.665km
周期: 88.004分钟
每日圈数: 16.362861
详细信息
固有亮度:
5
最大亮度:
2.5
卫星平台:
Starlink v1.5
覆盖范围:
全球
运营商:
太空探索技术公司
运营商所在国:
美国
制造商(研发单位):
太空探索技术公司
制造商所在国:
美国
使用方式:
暂无
卫星简介
星链(Starlink)计划是由太空探索技术公司(SpaceX)提出的一个巨型低轨卫星互联网星座项目,计划在2019年至2024年间在太空搭建由约1.2万颗卫星组成的“星链”网络,其中1584颗将部署在地球上空550千米处的近地轨道,并从2020年开始工作。该卫星仍在工作。